[[{"header":{"parameterUnit":"m.s-1","parameterCategory":2,"la1":30.2991,"la2":30.254,"lo1":-89.0895,"lo2":-89.0444,"dy":0.0017,"dx":0.0017,"nx":28,"ny":28,"refTime":"2024-05-27T21:00:00:Z","depth":"0","parameterNumber":2,"parameterNumberName":"U-component_of_CURRENTS"},"data":[0,0,0,0,0,0,0,0,0,0,0,0,0,0,0,0,0,0,0,0,0,0,0,0,0,0,0,0,0,0,0,0,0,0,0,0,0,0,0,0,0,0,0,0,0,0,0,0,0,0,0,0,0,0,0,0,0,0,-0.382,-0.3822,0,-0.4033,-0.4035,-0.4038,-0.408,-0.4078,-0.4076,-0.4074,-0.4053,-0.4054,-0.4055,0,0,0,0,0,0,0,0,0,0,0,0,0,-0.3595,-0.3598,-0.382,-0.3822,-0.3825,-0.4033,-0.4036,-0.4039,-0.408,-0.4078,-0.4076,-0.4074,-0.4053,-0.4054,-0.4055,0,0,0,0,0,0,0,0,0,0,0,0,0,-0.374,-0.3599,-0.3819,-0.387,-0.3876,-0.4032,-0.4036,-0.4039,-0.408,-0.4078,-0.4075,-0.4073,-0.4052,-0.4054,-0.4055,-0.4119,0,0,-0.406,-0.4061,0,0,0,0,0,0,0,0,-0.3731,-0.3748,-0.386,-0.3866,-0.3874,-0.4026,-0.3949,-0.4054,-0.4081,-0.4004,-0.4074,-0.4071,-0.4023,-0.4027,-0.4078,-0.4118,-0.4117,-0.406,-0.4061,-0.4062,-0.4063,0,0,0,0,0,0,0,-0.3721,-0.374,-0.3905,-0.3863,-0.3871,-0.3932,-0.3948,-0.3971,-0.4023,-0.4011,-0.4014,-0.4037,-0.4025,-0.4077,-0.4077,-0.4117,-0.406,-0.4062,-0.4063,-0.4064,-0.4113,-0.4114,0,0,0,0,0,0,-0.3688,-0.373,-0.3899,-0.3912,-0.3793,-0.3937,-0.3956,-0.3981,-0.4028,-0.4034,-0.4039,-0.4038,-0.4076,-0.4076,-0.4076,-0.4077,-0.4062,-0.4064,-0.4065,-0.4113,-0.4114,-0.4114,0,0,0,0,0,0,-0.3683,-0.3701,-0.389,-0.3824,-0.3852,-0.3943,-0.3972,-0.3986,-0.4034,-0.4051,-0.4052,-0.4069,-0.4073,-0.4074,-0.4087,-0.4078,-0.4064,-0.4066,-0.4113,-0.4113,-0.4114,-0.4126,0,0,0,0,0,0,-0.3675,-0.3698,-0.3732,-0.3822,-0.3855,-0.3975,-0.3975,-0.3992,-0.4052,-0.4052,-0.4078,-0.4074,-0.4071,-0.4085,-0.4089,-0.408,-0.4067,-0.4112,-0.4113,-0.4114,-0.4125,-0.4127,-0.4128,0,0,0,0,0,-0.3667,-0.3715,-0.3732,-0.3754,-0.3889,-0.3977,-0.4,-0.4056,-0.4055,-0.4087,-0.4093,-0.4073,-0.409,-0.4088,-0.4092,-0.4083,-0.4112,-0.4113,-0.4113,-0.4124,-0.4126,-0.4128,0,0,0,0,0,0,-0.3681,-0.3727,-0.3747,-0.382,-0.3888,-0.3982,-0.4018,-0.4063,-0.4106,-0.409,-0.4097,-0.4095,-0.4107,-0.4098,-0.4095,-0.4098,-0.4091,-0.4093,-0.4098,-0.41,-0.4101,-0.415,-0.4069,0,0,0,0,0,-0.3689,-0.3707,-0.3784,-0.3847,-0.3859,-0.394,-0.3991,-0.403,-0.4074,-0.4093,-0.4107,-0.4109,-0.4122,-0.411,-0.413,-0.4137,-0.4103,-0.4128,-0.4129,-0.4131,-0.4173,-0.4104,-0.4102,-0.4116,-0.4116,-0.4116,0,0,-0.3722,-0.3744,-0.3767,-0.3846,-0.3886,-0.3927,-0.3962,-0.4026,-0.4079,-0.4079,-0.4125,-0.413,-0.4132,-0.4144,-0.4143,-0.4125,-0.4099,-0.4132,-0.4133,-0.4175,-0.4104,-0.4103,-0.4101,-0.4117,-0.4117,-0.4117,0,0,-0.3752,-0.3792,-0.3795,-0.383,-0.3883,-0.3937,-0.3949,-0.403,-0.4073,-0.4127,-0.4135,-0.4144,-0.4157,-0.4168,-0.417,-0.4195,-0.4127,-0.4172,-0.4201,-0.4131,-0.413,-0.4128,-0.4039,-0.4029,-0.4151,-0.4151,-0.4151,0,-0.378,-0.38,-0.3825,-0.3825,-0.3861,-0.3926,-0.3958,-0.4026,-0.4114,-0.4145,-0.4126,-0.4168,-0.4177,-0.4195,-0.4215,-0.4201,-0.4137,-0.4189,-0.4132,-0.413,-0.4128,-0.4038,-0.4027,-0.4151,-0.4151,-0.4151,-0.4151,0,-0.3789,-0.3814,-0.3813,-0.382,-0.3878,-0.3912,-0.3988,-0.4055,-0.4095,-0.4143,-0.418,-0.4196,-0.4211,-0.4206,-0.4231,-0.4225,-0.4175,-0.4155,-0.4125,-0.4127,-0.4031,-0.402,-0.4152,-0.4152,-0.4152,-0.4152,0,0,-0.3774,-0.3811,-0.3799,-0.3826,-0.387,-0.3932,-0.4003,-0.4095,-0.4144,-0.4183,-0.4223,-0.4264,-0.4256,-0.4265,-0.4265,-0.4233,-0.4168,-0.4198,-0.4193,-0.4107,-0.3981,-0.3661,-0.3617,-0.4113,-0.4113,-0.4112,-0.3903,0,-0.3753,-0.3777,-0.38,-0.3856,-0.3878,-0.3957,-0.4029,-0.4123,-0.4176,-0.4229,-0.424,-0.4265,-0.4274,-0.4274,-0.4243,-0.4221,-0.4146,-0.4226,-0.3998,-0.3993,-0.3704,-0.3597,-0.3494,-0.3274,-0.3891,-0.3889,-0.3888,0,-0.369,-0.3738,-0.3774,-0.3887,-0.3901,-0.3948,-0.4074,-0.4154,-0.4232,-0.4266,-0.427,-0.4275,-0.4285,-0.4266,-0.4167,-0.4206,-0.4108,-0.4058,-0.4046,-0.375,-0.3651,-0.3381,-0.3229,-0.3243,-0.387,-0.3871,-0.3873,0,-0.362,-0.3701,-0.3745,-0.3768,-0.3901,-0.3953,-0.404,-0.414,-0.4176,-0.4274,-0.4255,-0.4275,-0.4212,-0.4167,-0.4026,-0.4111,-0.3842,-0.3931,-0.3533,-0.351,-0.3383,-0.3346,-0.3222,-0.3813,-0.3814,-0.3814,-0.3815,0,-0.354,-0.3574,-0.3719,-0.373,-0.3806,-0.3929,-0.3974,-0.4084,-0.4147,-0.4123,-0.4238,-0.4154,-0.4174,-0.401,-0.3977,-0.364,-0.3759,-0.3516,-0.3419,-0.3374,-0.334,-0.3315,-0.3387,-0.3806,-0.3808,-0.381,-0.3811,0,-0.3379,-0.3489,-0.3525,-0.3683,-0.3742,-0.3778,-0.3879,-0.3894,-0.4016,-0.398,-0.3995,-0.3995,-0.3803,-0.3717,-0.3565,-0.3455,-0.3186,-0.3104,-0.302,-0.2914,-0.2626,-0.2702,-0.2452,-0.2381,-0.2733,-0.2724,-0.2716,0,-0.3287,-0.3279,-0.341,-0.3428,-0.3474,-0.3562,-0.359,-0.3776,-0.3777,-0.3824,-0.3764,-0.3605,-0.3386,-0.3014,-0.286,-0.2637,-0.2728,-0.2378,-0.2542,-0.254,-0.2561,-0.265,-0.2623,-0.2395,-0.2385,-0.2377,-0.2371,0,-0.3052,-0.307,-0.3097,-0.3125,-0.3166,-0.3228,-0.3305,-0.3288,-0.3459,-0.3401,-0.3223,-0.3064,-0.2766,-0.2444,-0.215,-0.2059,-0.235,-0.2195,-0.2254,-0.2303,-0.2343,-0.2248,-0.2608,-0.2298,-0.2306,-0.2311,-0.2315,-0.2318,-0.2804,-0.2735,-0.2733,-0.2752,-0.2813,-0.2822,-0.2771,-0.2828,-0.2746,-0.2597,-0.2639,-0.2279,-0.2192,-0.1778,-0.1661,-0.1532,-0.1708,-0.1582,-0.168,-0.1774,-0.168,-0.1812,-0.1337,-0.1339,-0.134,-0.1342,-0.1343,0,-0.2439,-0.2395,-0.2367,-0.2379,-0.2329,-0.2492,-0.2507,-0.2389,-0.217,-0.1999,-0.1769,-0.1481,-0.1292,-0.1284,-0.1232,-0.1126,-0.123,-0.1123,-0.1378,-0.1381,-0.1543,-0.1503,-0.0966,-0.0966,-0.0966,-0.0966,-0.0966,-0.0966,-0.2242,-0.2065,-0.2061,-0.1888,-0.1913,-0.1789,-0.1743,-0.1598,-0.1432,-0.0981,-0.071,-0.0575,-0.0817,-0.1108,-0.1114,-0.1055,-0.1142,-0.1011,-0.1079,-0.1383,-0.1442,-0.1499,-0.1478,-0.0945,-0.0945,-0.0922,-0.0923,-0.0923]},{"header":{"parameterUnit":"m.s-1","parameterCategory":2,"la1":30.2991,"la2":30.254,"lo1":-89.0895,"lo2":-89.0444,"dy":0.0017,"dx":0.0017,"nx":28,"ny":28,"refTime":"2024-05-27T21:00:00:Z","depth":"0","parameterNumber":3,"parameterNumberName":"V-component_of_CURRENTS"},"data":[0,0,0,0,0,0,0,0,0,0,0,0,0,0,0,0,0,0,0,0,0,0,0,0,0,0,0,0,0,0,0,0,0,0,0,0,0,0,0,0,0,0,0,0,0,0,0,0,0,0,0,0,0,0,0,0,0,0,-0.0409,-0.0407,0,-0.0162,-0.0159,-0.0155,-0.0035,-0.0036,-0.0036,-0.0037,0.0165,0.017,0.0176,0,0,0,0,0,0,0,0,0,0,0,0,0,-0.0612,-0.061,-0.0409,-0.0406,-0.0404,-0.0162,-0.0158,-0.0155,-0.0035,-0.0036,-0.0036,-0.0037,0.0163,0.017,0.0176,0,0,0,0,0,0,0,0,0,0,0,0,0,-0.0457,-0.0609,-0.041,-0.0318,-0.0308,-0.0163,-0.0158,-0.0154,-0.0035,-0.0036,-0.0037,-0.0037,0.016,0.0169,0.0177,0.0244,0,0,0.0204,0.0208,0,0,0,0,0,0,0,0,-0.0466,-0.0449,-0.0334,-0.0324,-0.0313,-0.0134,-0.0156,-0.0024,-0.0035,-0.0134,-0.0037,-0.0037,0.0058,0.0075,0.013,0.0254,0.0262,0.0205,0.021,0.0214,0.0216,0,0,0,0,0,0,0,-0.0477,-0.0458,-0.0307,-0.0332,-0.0318,-0.0233,-0.0213,-0.0129,-0.0035,-0.0126,-0.0117,-0.0096,0.0064,0.0122,0.0135,0.0265,0.0204,0.0212,0.0217,0.0221,0.0404,0.0404,0,0,0,0,0,0,-0.0524,-0.0469,-0.0315,-0.03,-0.0397,-0.023,-0.0207,-0.0187,-0.0034,-0.0013,-0.0096,-0.0092,0.0107,0.0125,0.0143,0.013,0.0214,0.0222,0.0227,0.0404,0.0404,0.0404,0,0,0,0,0,0,-0.0529,-0.0512,-0.0325,-0.0382,-0.0353,-0.0227,-0.0205,-0.0182,-0.013,-0.0012,0.0009,-0.007,0.0107,0.0131,0.0201,0.0142,0.0226,0.0233,0.0405,0.0404,0.0404,0.0169,0,0,0,0,0,0,-0.0536,-0.0516,-0.0513,-0.0386,-0.0352,-0.0262,-0.0204,-0.0177,-0.0117,-0.0109,0.0018,0.0037,0.0109,0.0187,0.0209,0.0156,0.024,0.0405,0.0405,0.0404,0.0177,0.0161,0.0146,0,0,0,0,0,-0.0544,-0.0541,-0.0514,-0.0495,-0.0353,-0.0262,-0.0237,-0.0146,-0.0116,-0.01,-0.0017,0.0032,0.0199,0.0195,0.0221,0.0167,0.0406,0.0405,0.0404,0.0184,0.0164,0.0147,0,0,0,0,0,0,-0.062,-0.0525,-0.0493,-0.046,-0.0381,-0.0245,-0.0218,-0.0154,-0.0069,-0.0068,0.0042,0.0066,0.01,0.0186,0.0179,0.0225,0.0306,0.031,0.013,0.0112,0.0097,0.0037,0.0247,0,0,0,0,0,-0.0641,-0.0617,-0.0513,-0.0487,-0.0458,-0.034,-0.0291,-0.0232,-0.0141,-0.0102,-0.0019,0.0066,0.0123,0.0157,0.0234,0.027,0.0348,0.0255,0.0239,0.0225,0.0197,0.0213,0.0194,0.0401,0.0401,0.0401,0,0,-0.0659,-0.0607,-0.059,-0.0502,-0.0434,-0.0409,-0.0312,-0.0252,-0.0244,-0.0096,-0.0063,0.0019,0.0125,0.015,0.0172,0.0209,0.0229,0.0224,0.021,0.0191,0.021,0.0189,0.0171,0.0401,0.0401,0.0401,0,0,-0.0697,-0.0648,-0.0647,-0.0601,-0.052,-0.0455,-0.045,-0.0333,-0.0299,-0.0241,-0.0159,-0.0119,0.001,0.004,0.0079,0.0034,0.0146,0.0071,-0.0064,-0.005,-0.0069,-0.0084,0.0066,0.0065,0.0059,0.0058,0.0058,0,-0.0726,-0.0712,-0.0631,-0.0628,-0.061,-0.0494,-0.0503,-0.0448,-0.0327,-0.0325,-0.0264,-0.0141,-0.0058,-0.0067,-0.0087,-0.0014,0.0068,-0.0017,-0.0078,-0.0093,-0.0105,0.0052,0.0054,0.0047,0.0048,0.0049,0.005,0,-0.0767,-0.0762,-0.0761,-0.0734,-0.0705,-0.0687,-0.0624,-0.0603,-0.0547,-0.0491,-0.0471,-0.0356,-0.0292,-0.0265,-0.0188,-0.0241,-0.0123,-0.0107,-0.0054,-0.0142,0.0034,0.004,0.0031,0.0035,0.0038,0.0041,0,0,-0.0815,-0.0795,-0.0798,-0.0824,-0.0766,-0.0753,-0.0771,-0.0752,-0.0778,-0.0687,-0.0717,-0.0636,-0.0571,-0.0523,-0.0433,-0.0424,-0.0412,-0.0316,-0.0309,-0.0202,-0.028,-0.0155,-0.0133,-0.0422,-0.0424,-0.0426,-0.0096,0,-0.0872,-0.0921,-0.0884,-0.0941,-0.0968,-0.0912,-0.0942,-0.0924,-0.0876,-0.0873,-0.0805,-0.0768,-0.067,-0.0639,-0.0631,-0.0448,-0.0419,-0.0496,-0.0178,-0.0165,-0.0079,-0.0133,-0.0085,0.0212,-0.0089,-0.0088,-0.0087,0,-0.0928,-0.0961,-0.103,-0.1081,-0.1089,-0.1107,-0.1154,-0.1158,-0.1139,-0.1105,-0.108,-0.0981,-0.0921,-0.0847,-0.0632,-0.0678,-0.0519,-0.0387,-0.0371,-0.0184,-0.0035,0.0242,0.0236,0.037,-0.0076,-0.0077,-0.0077,0,-0.1025,-0.1069,-0.114,-0.1151,-0.1179,-0.1223,-0.124,-0.1237,-0.1241,-0.1243,-0.1212,-0.1143,-0.1021,-0.0907,-0.0584,-0.0619,-0.0317,-0.0322,-0.0056,-0.0036,0.0102,0.0134,0.0218,-0.0245,-0.0246,-0.0247,-0.0248,0,-0.1106,-0.1163,-0.1197,-0.1236,-0.1343,-0.1332,-0.141,-0.1422,-0.1406,-0.1372,-0.1329,-0.1225,-0.1038,-0.0812,-0.0621,-0.0259,-0.0327,-0.0081,0.0017,0.0038,0.0058,0.0263,0.0316,-0.0234,-0.0237,-0.0239,-0.0242,0,-0.1184,-0.1202,-0.1289,-0.1352,-0.1383,-0.146,-0.1491,-0.1523,-0.15,-0.1448,-0.1436,-0.1233,-0.0907,-0.0675,-0.0359,-0.0209,0.0169,0.0175,0.0263,0.0359,0.0664,0.0704,0.094,0.1048,0.0493,0.0497,0.0501,0,-0.1228,-0.1274,-0.1369,-0.1423,-0.1448,-0.1539,-0.158,-0.1585,-0.1567,-0.1387,-0.1338,-0.1034,-0.0746,-0.0231,0.0048,0.04,0.045,0.0622,0.0495,0.068,0.0797,0.0801,0.0872,0.0658,0.0662,0.0666,0.0669,0,-0.1293,-0.1311,-0.1372,-0.1473,-0.1539,-0.1614,-0.1645,-0.1625,-0.1544,-0.1412,-0.1098,-0.0852,-0.0359,0.0091,0.0487,0.066,0.0718,0.0713,0.0835,0.0861,0.0939,0.1093,0.0544,0.0704,0.07,0.0698,0.0696,0.0694,-0.1314,-0.1359,-0.1408,-0.1499,-0.158,-0.1607,-0.1585,-0.1498,-0.136,-0.0997,-0.0826,-0.0299,0.0073,0.0656,0.0851,0.1168,0.1084,0.1212,0.1247,0.1237,0.129,0.0873,0.1154,0.1154,0.1153,0.1152,0.1152,0,-0.1305,-0.1334,-0.1421,-0.1506,-0.1558,-0.1607,-0.1552,-0.1401,-0.1094,-0.07,-0.0291,0.0372,0.0807,0.1122,0.1484,0.1658,0.1653,0.1719,0.1691,0.1737,0.1326,0.1275,0.1674,0.1674,0.1674,0.1674,0.1674,0.1673,-0.1295,-0.1333,-0.1363,-0.1429,-0.1485,-0.1445,-0.1362,-0.1045,-0.0712,0.0012,0.056,0.0915,0.1227,0.1678,0.2008,0.2044,0.2178,0.2173,0.2257,0.1916,0.1868,0.1822,0.1782,0.2281,0.2282,0.2633,0.2636,0.2639]}],[{"header":{"parameterUnit":"m.s-1","parameterCategory":2,"la1":30.2991,"la2":30.254,"lo1":-89.0895,"lo2":-89.0444,"dy":0.0017,"dx":0.0017,"nx":28,"ny":28,"refTime":"2024-05-27T21:00:00:Z","depth":"2","parameterNumber":2,"parameterNumberName":"U-component_of_CURRENTS"},"data":[0,0,0,0,0,0,0,0,0,0,0,0,0,0,0,0,0,0,0,0,0,0,0,0,0,0,0,0,0,0,0,0,0,0,0,0,0,0,0,0,0,0,0,0,0,0,0,0,0,0,0,0,0,0,0,0,0,0,-0.2354,-0.2354,0,-0.234,-0.2339,-0.2339,-0.2323,-0.2324,-0.2324,-0.2325,-0.2256,-0.2254,-0.2251,0,0,0,0,0,0,0,0,0,0,0,0,0,-0.2272,-0.2273,-0.2354,-0.2354,-0.2355,-0.234,-0.2339,-0.2338,-0.2323,-0.2324,-0.2324,-0.2325,-0.2257,-0.2254,-0.2251,0,0,0,0,0,0,0,0,0,0,0,0,0,-0.2281,-0.2274,-0.2354,-0.2351,-0.2351,-0.234,-0.2339,-0.2338,-0.2323,-0.2324,-0.2325,-0.2325,-0.2258,-0.2254,-0.2251,-0.2215,0,0,-0.224,-0.2239,0,0,0,0,0,0,0,0,-0.228,-0.2283,-0.2351,-0.2352,-0.2352,-0.2341,-0.2286,-0.2297,-0.2323,-0.2326,-0.2325,-0.2326,-0.2284,-0.2278,-0.2264,-0.2212,-0.2209,-0.224,-0.2238,-0.2237,-0.2236,0,0,0,0,0,0,0,-0.228,-0.2283,-0.2341,-0.2352,-0.2352,-0.2319,-0.2321,-0.2287,-0.2294,-0.2326,-0.2326,-0.2337,-0.2282,-0.2267,-0.2262,-0.2208,-0.224,-0.2237,-0.2235,-0.2234,-0.2159,-0.2159,0,0,0,0,0,0,-0.2301,-0.2283,-0.2341,-0.2341,-0.2326,-0.2321,-0.2322,-0.2337,-0.2296,-0.2293,-0.2336,-0.2336,-0.2273,-0.2266,-0.226,-0.2258,-0.2237,-0.2233,-0.2231,-0.2159,-0.2159,-0.2159,0,0,0,0,0,0,-0.23,-0.2307,-0.2342,-0.2317,-0.232,-0.2323,-0.2339,-0.2337,-0.233,-0.2306,-0.23,-0.2334,-0.2273,-0.2264,-0.2228,-0.2253,-0.2232,-0.2229,-0.2159,-0.2159,-0.2159,-0.2226,0,0,0,0,0,0,-0.2297,-0.2306,-0.2325,-0.2319,-0.2323,-0.2335,-0.2339,-0.2336,-0.2339,-0.2339,-0.2301,-0.2295,-0.2273,-0.2233,-0.2224,-0.2248,-0.2226,-0.2159,-0.2159,-0.2159,-0.2224,-0.2229,-0.2233,0,0,0,0,0,-0.2294,-0.2321,-0.2326,-0.2333,-0.2349,-0.2335,-0.2332,-0.2331,-0.2338,-0.2328,-0.2304,-0.2297,-0.2229,-0.2229,-0.2219,-0.2243,-0.2159,-0.2159,-0.2159,-0.2222,-0.2228,-0.2233,0,0,0,0,0,0,-0.2294,-0.2323,-0.2327,-0.2362,-0.2349,-0.2336,-0.2339,-0.2334,-0.2307,-0.2317,-0.2282,-0.2273,-0.2258,-0.223,-0.2232,-0.2221,-0.2198,-0.2196,-0.225,-0.2255,-0.2259,-0.2275,-0.2223,0,0,0,0,0,-0.2305,-0.2329,-0.2336,-0.2356,-0.2359,-0.2347,-0.2346,-0.2347,-0.2327,-0.2317,-0.229,-0.2267,-0.2248,-0.2235,-0.2209,-0.2189,-0.2163,-0.2201,-0.2205,-0.2209,-0.2215,-0.2201,-0.2206,-0.2159,-0.2159,-0.2159,0,0,-0.2305,-0.2329,-0.2339,-0.2357,-0.2351,-0.2353,-0.2346,-0.2352,-0.2354,-0.2313,-0.2299,-0.2278,-0.2245,-0.2233,-0.2224,-0.2214,-0.2204,-0.221,-0.2214,-0.2216,-0.2202,-0.2207,-0.2211,-0.2159,-0.2159,-0.2159,0,0,-0.231,-0.2342,-0.2357,-0.2358,-0.2371,-0.2367,-0.2371,-0.2362,-0.236,-0.2341,-0.2326,-0.2313,-0.2268,-0.2259,-0.2247,-0.2254,-0.2228,-0.2254,-0.2288,-0.2276,-0.228,-0.2283,-0.2239,-0.2238,-0.2256,-0.2256,-0.2256,0,-0.2319,-0.2335,-0.2352,-0.2366,-0.2373,-0.2375,-0.2379,-0.2377,-0.2355,-0.2354,-0.2347,-0.2309,-0.2286,-0.2282,-0.2292,-0.2268,-0.2244,-0.2275,-0.2284,-0.2286,-0.2289,-0.2243,-0.2241,-0.2259,-0.2259,-0.2259,-0.2258,0,-0.2317,-0.2341,-0.2349,-0.2372,-0.2377,-0.2382,-0.2394,-0.2394,-0.2398,-0.2394,-0.239,-0.2358,-0.2337,-0.2338,-0.2317,-0.233,-0.23,-0.2294,-0.2276,-0.2298,-0.2247,-0.2244,-0.2264,-0.2263,-0.2262,-0.2261,0,0,-0.231,-0.2345,-0.2348,-0.2356,-0.2386,-0.2385,-0.2406,-0.241,-0.2429,-0.2417,-0.242,-0.2409,-0.2405,-0.2391,-0.2374,-0.237,-0.2364,-0.2346,-0.2344,-0.2312,-0.2314,-0.222,-0.2207,-0.2365,-0.2365,-0.2365,-0.2266,0,-0.2299,-0.2326,-0.2347,-0.2358,-0.2367,-0.2391,-0.2407,-0.2424,-0.2435,-0.2438,-0.2434,-0.2431,-0.2423,-0.2422,-0.2419,-0.2374,-0.2361,-0.239,-0.2289,-0.2285,-0.2208,-0.2203,-0.2039,-0.1931,-0.2263,-0.2262,-0.2262,0,-0.2273,-0.2303,-0.2318,-0.2357,-0.2364,-0.2375,-0.2409,-0.2426,-0.2452,-0.2464,-0.2475,-0.247,-0.246,-0.2454,-0.24,-0.2419,-0.2376,-0.2344,-0.2339,-0.2228,-0.2186,-0.1965,-0.1913,-0.2256,-0.2256,-0.2257,-0.2257,0,-0.2231,-0.2273,-0.2286,-0.2298,-0.2348,-0.236,-0.2384,-0.2427,-0.2447,-0.248,-0.2488,-0.249,-0.2465,-0.244,-0.2367,-0.239,-0.2289,-0.2307,-0.2179,-0.217,-0.1998,-0.1974,-0.2275,-0.2276,-0.2276,-0.2276,-0.2276,0,-0.22,-0.2207,-0.2267,-0.2275,-0.2291,-0.2341,-0.2364,-0.2399,-0.2447,-0.2443,-0.2494,-0.2469,-0.2464,-0.2404,-0.2362,-0.2235,-0.2278,-0.2176,-0.2142,-0.2013,-0.1992,-0.2254,-0.2252,-0.2272,-0.2273,-0.2274,-0.2275,0,-0.2131,-0.2175,-0.2188,-0.225,-0.2266,-0.2275,-0.2337,-0.2355,-0.242,-0.2412,-0.242,-0.2436,-0.2349,-0.2317,-0.2239,-0.2194,-0.211,-0.2057,-0.1888,-0.1837,-0.2004,-0.2008,-0.1919,-0.1915,-0.1911,-0.1909,-0.1906,0,-0.209,-0.2091,-0.2153,-0.2156,-0.2177,-0.2208,-0.2227,-0.2316,-0.2328,-0.2357,-0.2328,-0.2287,-0.2189,-0.2051,-0.1966,-0.1859,-0.1966,-0.1683,-0.1711,-0.1993,-0.197,-0.1979,-0.1986,-0.1497,-0.1491,-0.1487,-0.1483,0,-0.1999,-0.2024,-0.2044,-0.2057,-0.2072,-0.2089,-0.2118,-0.2126,-0.2194,-0.219,-0.2123,-0.2057,-0.1928,-0.1735,-0.1635,-0.1566,-0.1696,-0.1587,-0.1905,-0.1623,-0.159,-0.1569,-0.1592,-0.1443,-0.1447,-0.145,-0.1452,-0.1453,-0.1913,-0.1903,-0.1924,-0.192,-0.1943,-0.1922,-0.1872,-0.1908,-0.1884,-0.1821,-0.1863,-0.1714,-0.1672,-0.1414,-0.1314,-0.1259,-0.1388,-0.1358,-0.1374,-0.1395,-0.1374,-0.1339,-0.1137,-0.1139,-0.1141,-0.1143,-0.1145,0,-0.1774,-0.1778,-0.1777,-0.1758,-0.1713,-0.1774,-0.1752,-0.1669,-0.1562,-0.1561,-0.1481,-0.1279,-0.1141,-0.1117,-0.0953,-0.0928,-0.0943,-0.0908,-0.0936,-0.0975,-0.101,-0.0974,-0.0628,-0.0627,-0.0626,-0.0625,0,0,-0.1697,-0.1644,-0.1645,-0.1516,-0.1501,-0.1366,-0.1308,-0.1231,-0.1188,-0.1067,-0.1007,-0.1068,-0.1069,-0.0859,-0.08,-0.0688,-0.0829,-0.0646,-0.1053,-0.1123,-0.1157,-0.1251,-0.1236,0,0,0,0,0]},{"header":{"parameterUnit":"m.s-1","parameterCategory":2,"la1":30.2991,"la2":30.254,"lo1":-89.0895,"lo2":-89.0444,"dy":0.0017,"dx":0.0017,"nx":28,"ny":28,"refTime":"2024-05-27T21:00:00:Z","depth":"2","parameterNumber":3,"parameterNumberName":"V-component_of_CURRENTS"},"data":[0,0,0,0,0,0,0,0,0,0,0,0,0,0,0,0,0,0,0,0,0,0,0,0,0,0,0,0,0,0,0,0,0,0,0,0,0,0,0,0,0,0,0,0,0,0,0,0,0,0,0,0,0,0,0,0,0,0,-0.0501,-0.05,0,-0.0393,-0.0392,-0.0391,-0.0318,-0.0318,-0.0318,-0.0318,-0.0185,-0.0181,-0.0178,0,0,0,0,0,0,0,0,0,0,0,0,0,-0.0526,-0.0527,-0.0501,-0.05,-0.0499,-0.0393,-0.0392,-0.039,-0.0319,-0.0318,-0.0318,-0.0317,-0.0186,-0.0182,-0.0178,0,0,0,0,0,0,0,0,0,0,0,0,0,-0.0475,-0.0527,-0.0501,-0.0452,-0.0446,-0.0394,-0.0392,-0.039,-0.0319,-0.0318,-0.0318,-0.0317,-0.0187,-0.0182,-0.0177,-0.0157,0,0,-0.0163,-0.016,0,0,0,0,0,0,0,0,-0.0478,-0.0474,-0.046,-0.0455,-0.0449,-0.037,-0.0352,-0.0311,-0.0319,-0.0365,-0.0318,-0.0317,-0.0246,-0.0236,-0.0215,-0.0151,-0.0145,-0.0162,-0.0159,-0.0157,-0.0156,0,0,0,0,0,0,0,-0.0482,-0.0478,-0.0456,-0.0459,-0.0452,-0.0394,-0.0387,-0.0343,-0.0308,-0.0361,-0.0356,-0.0347,-0.0242,-0.022,-0.0211,-0.0143,-0.0162,-0.0158,-0.0155,-0.0153,-0.0028,-0.0028,0,0,0,0,0,0,-0.0506,-0.0482,-0.046,-0.0453,-0.0465,-0.0395,-0.0387,-0.0395,-0.0308,-0.0296,-0.0348,-0.0344,-0.0228,-0.0217,-0.0206,-0.0153,-0.0157,-0.0153,-0.015,-0.0029,-0.0028,-0.0028,0,0,0,0,0,0,-0.0508,-0.0506,-0.0464,-0.0465,-0.0456,-0.0396,-0.0404,-0.0393,-0.0369,-0.0299,-0.0285,-0.0336,-0.0227,-0.0213,-0.0163,-0.0149,-0.015,-0.0146,-0.0029,-0.0028,-0.0028,-0.0063,0,0,0,0,0,0,-0.0509,-0.0508,-0.052,-0.0468,-0.0457,-0.0435,-0.0405,-0.0391,-0.0365,-0.0359,-0.0284,-0.0271,-0.0226,-0.017,-0.0158,-0.0142,-0.0142,-0.003,-0.0029,-0.0028,-0.0062,-0.0064,-0.0065,0,0,0,0,0,-0.0511,-0.0529,-0.0522,-0.0519,-0.0478,-0.0435,-0.0424,-0.0377,-0.0365,-0.0354,-0.0303,-0.0274,-0.0156,-0.0166,-0.0151,-0.0134,-0.003,-0.0029,-0.0028,-0.0062,-0.0063,-0.0065,0,0,0,0,0,0,-0.0541,-0.0522,-0.0513,-0.0524,-0.0486,-0.0424,-0.041,-0.0384,-0.0335,-0.033,-0.0268,-0.0251,-0.02,-0.0167,-0.0179,-0.0096,-0.0089,-0.0085,-0.0119,-0.012,-0.0121,-0.0136,-0.0138,0,0,0,0,0,-0.0559,-0.057,-0.0531,-0.0538,-0.0523,-0.0471,-0.0449,-0.0419,-0.037,-0.0348,-0.0295,-0.0239,-0.0185,-0.0154,-0.0104,-0.0062,-0.0028,-0.0042,-0.0043,-0.0044,-0.0047,0.0017,0.0021,-0.0025,-0.0025,-0.0025,0,0,-0.0572,-0.0563,-0.0569,-0.0546,-0.0512,-0.0487,-0.0455,-0.0426,-0.04,-0.0342,-0.0292,-0.0242,-0.0175,-0.0122,-0.0097,-0.0092,-0.0014,-0.0043,-0.0045,-0.0046,0.0018,0.0022,0.0026,-0.0024,-0.0024,-0.0024,0,0,-0.0592,-0.0597,-0.0605,-0.0577,-0.0539,-0.0505,-0.0502,-0.0444,-0.0414,-0.0366,-0.0313,-0.0258,-0.0182,-0.0124,-0.0087,-0.0067,-0.0024,-0.0054,-0.0067,-0.0006,-0.0002,0.0002,0.0045,0.0054,-0.0053,-0.0053,-0.0053,0,-0.0609,-0.0616,-0.0596,-0.0584,-0.0565,-0.0518,-0.0504,-0.0464,-0.0396,-0.037,-0.0357,-0.0234,-0.0179,-0.0103,-0.0093,-0.0068,-0.0036,-0.0068,-0.0008,-0.0003,0.0002,0.0045,0.0055,-0.0054,-0.0054,-0.0054,-0.0054,0,-0.062,-0.0624,-0.0622,-0.06,-0.0575,-0.0558,-0.0505,-0.0475,-0.0441,-0.0395,-0.0323,-0.0247,-0.0176,-0.0145,-0.0111,-0.0046,-0.0036,-0.0019,-0.0007,0.0004,0.0049,0.006,-0.0057,-0.0056,-0.0056,-0.0055,0,0,-0.0664,-0.064,-0.0639,-0.0633,-0.0585,-0.0567,-0.0528,-0.0476,-0.0453,-0.0383,-0.0337,-0.024,-0.0206,-0.0163,-0.0107,-0.0051,0.0012,-0.0027,-0.0023,0.0009,0.0135,0.0154,0.0168,0.0039,0.0041,0.0042,0.015,0,-0.0677,-0.0678,-0.0653,-0.064,-0.0635,-0.0584,-0.0554,-0.0502,-0.0451,-0.0395,-0.0309,-0.0249,-0.021,-0.018,-0.0114,-0.0016,0.0039,-0.002,0.0124,0.0128,0.014,0.0181,0.017,0.0266,0.016,0.0162,0.0163,0,-0.0694,-0.0695,-0.0697,-0.0673,-0.0664,-0.0648,-0.0601,-0.0567,-0.0479,-0.044,-0.0364,-0.0297,-0.0196,-0.0173,-0.0006,-0.0048,0.0034,0.0107,0.0113,0.0151,0.0168,0.024,0.029,0.0181,0.018,0.0179,0.0177,0,-0.074,-0.0723,-0.0734,-0.0723,-0.0687,-0.0678,-0.0655,-0.0586,-0.056,-0.0472,-0.0438,-0.0316,-0.0247,-0.0129,0.0018,0.0007,0.0198,0.0205,0.03,0.0302,0.0331,0.0332,0.0317,0.0317,0.0317,0.0317,0.0316,0,-0.0769,-0.0774,-0.0762,-0.0767,-0.0779,-0.0733,-0.0727,-0.0684,-0.0619,-0.0575,-0.0474,-0.0402,-0.0233,-0.0101,0.0017,0.0195,0.02,0.0308,0.034,0.0318,0.0316,0.0272,0.0265,0.0321,0.032,0.0319,0.0318,0,-0.0815,-0.0805,-0.0821,-0.0806,-0.0805,-0.0818,-0.0791,-0.078,-0.0712,-0.0649,-0.0623,-0.0456,-0.0275,-0.0109,0.0104,0.0199,0.0359,0.0416,0.0369,0.0393,0.0418,0.0408,0.0535,0.0537,0.0538,0.054,0.0541,0,-0.0838,-0.0852,-0.0868,-0.0891,-0.0889,-0.0899,-0.0902,-0.0843,-0.0815,-0.0669,-0.0631,-0.0447,-0.0285,0.002,0.0221,0.0434,0.042,0.0524,0.0508,0.0427,0.0445,0.0432,0.0421,0.0532,0.0533,0.0534,0.0535,0,-0.0882,-0.0892,-0.0913,-0.0961,-0.0982,-0.0996,-0.0982,-0.0965,-0.0867,-0.0777,-0.0607,-0.0465,-0.0161,0.0103,0.0354,0.0466,0.0487,0.0546,0.0503,0.047,0.0431,0.0445,0.0433,0.0541,0.054,0.054,0.054,0.0539,-0.0919,-0.0956,-0.0988,-0.1028,-0.1058,-0.1065,-0.1043,-0.0995,-0.0915,-0.0735,-0.0601,-0.0358,-0.0115,0.0272,0.0453,0.0593,0.0585,0.0615,0.061,0.0605,0.0577,0.0542,0.0667,0.0667,0.0667,0.0667,0.0667,0,-0.0957,-0.0995,-0.1045,-0.1088,-0.1118,-0.1114,-0.1071,-0.1004,-0.0877,-0.0711,-0.0519,-0.0223,0.0064,0.0288,0.0541,0.0691,0.0665,0.069,0.0639,0.0632,0.0626,0.0596,0.0693,0.0694,0.0694,0.0694,0,0,-0.0979,-0.1037,-0.1061,-0.1119,-0.1143,-0.1119,-0.1074,-0.0956,-0.0811,-0.0602,-0.0425,-0.0201,0.0087,0.0272,0.0466,0.0592,0.0561,0.0586,0.0552,0.0463,0.0455,0.0572,0.0517,0,0,0,0,0]}],[{"header":{"parameterUnit":"m.s-1","parameterCategory":2,"la1":30.2991,"la2":30.254,"lo1":-89.0895,"lo2":-89.0444,"dy":0.0017,"dx":0.0017,"nx":28,"ny":28,"refTime":"2024-05-27T21:00:00:Z","depth":"4","parameterNumber":2,"parameterNumberName":"U-component_of_CURRENTS"},"data":[0,0,0,0,0,0,0,0,0,0,0,0,0,0,0,0,0,0,0,0,0,0,0,0,0,0,0,0,0,0,0,0,0,0,0,0,0,0,0,0,0,0,0,0,0,0,0,0,0,0,0,0,0,0,0,0,0,0,-0.1461,-0.1462,0,-0.1494,-0.1495,-0.1495,-0.1534,-0.1535,-0.1536,-0.1536,-0.1579,-0.158,-0.158,0,0,0,0,0,0,0,0,0,0,0,0,0,-0.1392,-0.1393,-0.1461,-0.1462,-0.1462,-0.1494,-0.1495,-0.1495,-0.1534,-0.1535,-0.1536,-0.1537,-0.1579,-0.1579,-0.158,0,0,0,0,0,0,0,0,0,0,0,0,0,-0.1421,-0.1393,-0.1461,-0.1487,-0.149,-0.1494,-0.1495,-0.1495,-0.1534,-0.1535,-0.1536,-0.1537,-0.1579,-0.1579,-0.158,-0.156,0,0,-0.1582,-0.1582,0,0,0,0,0,0,0,0,-0.142,-0.1423,-0.1483,-0.1485,-0.1489,-0.1513,-0.1486,-0.1518,-0.1533,-0.1515,-0.1536,-0.1538,-0.1558,-0.1561,-0.1561,-0.1562,-0.1564,-0.1582,-0.1582,-0.1583,-0.1583,0,0,0,0,0,0,0,-0.1417,-0.1422,-0.1472,-0.1483,-0.1487,-0.1484,-0.149,-0.1492,-0.1528,-0.1516,-0.152,-0.1527,-0.156,-0.1561,-0.1563,-0.1564,-0.1582,-0.1582,-0.1583,-0.1583,-0.1657,-0.1658,0,0,0,0,0,0,-0.1419,-0.142,-0.1471,-0.1473,-0.1459,-0.1485,-0.1491,-0.1502,-0.1528,-0.1534,-0.1526,-0.1528,-0.1559,-0.1562,-0.1564,-0.1634,-0.1583,-0.1583,-0.1583,-0.1655,-0.1657,-0.1659,0,0,0,0,0,0,-0.1417,-0.1423,-0.147,-0.1449,-0.1455,-0.1485,-0.1497,-0.1502,-0.1534,-0.1535,-0.1541,-0.1556,-0.156,-0.1563,-0.1597,-0.1633,-0.1583,-0.1584,-0.1653,-0.1656,-0.1658,-0.1715,0,0,0,0,0,0,-0.1415,-0.1422,-0.1439,-0.1449,-0.1456,-0.1491,-0.1497,-0.1502,-0.1536,-0.154,-0.1562,-0.1566,-0.1561,-0.1597,-0.1598,-0.1633,-0.1584,-0.1651,-0.1654,-0.1657,-0.1711,-0.1719,-0.1726,0,0,0,0,0,-0.1412,-0.1427,-0.1439,-0.1446,-0.1476,-0.1492,-0.1496,-0.1519,-0.1536,-0.1552,-0.1574,-0.1567,-0.1617,-0.1598,-0.1599,-0.1635,-0.165,-0.1654,-0.1657,-0.1708,-0.1718,-0.1726,0,0,0,0,0,0,-0.1405,-0.1433,-0.1447,-0.147,-0.149,-0.15,-0.1518,-0.1535,-0.1562,-0.1575,-0.158,-0.1585,-0.163,-0.1623,-0.1603,-0.1667,-0.1635,-0.1639,-0.1674,-0.1683,-0.169,-0.1681,-0.1585,0,0,0,0,0,-0.141,-0.1435,-0.1454,-0.1477,-0.1488,-0.1509,-0.1523,-0.1539,-0.156,-0.1576,-0.1595,-0.1617,-0.1639,-0.1655,-0.1668,-0.1696,-0.167,-0.1723,-0.173,-0.1737,-0.1732,-0.1723,-0.1728,-0.1671,-0.1671,-0.1671,0,0,-0.1412,-0.1434,-0.1447,-0.1478,-0.1495,-0.1522,-0.1521,-0.155,-0.1584,-0.1574,-0.1631,-0.1643,-0.1653,-0.1691,-0.1711,-0.1694,-0.1741,-0.1741,-0.1746,-0.1738,-0.1727,-0.1732,-0.1737,-0.1673,-0.1673,-0.1672,0,0,-0.1424,-0.145,-0.1473,-0.1495,-0.153,-0.1543,-0.156,-0.1588,-0.1615,-0.166,-0.1669,-0.1698,-0.1736,-0.1746,-0.1757,-0.181,-0.1781,-0.1828,-0.1858,-0.185,-0.1853,-0.1857,-0.1831,-0.1831,-0.1831,-0.1831,-0.1831,0,-0.143,-0.1462,-0.1481,-0.1511,-0.1537,-0.156,-0.1591,-0.1618,-0.1659,-0.1679,-0.1691,-0.1747,-0.176,-0.1796,-0.1824,-0.1827,-0.181,-0.1822,-0.1857,-0.186,-0.1862,-0.1834,-0.1834,-0.1834,-0.1834,-0.1834,-0.1833,0,-0.1452,-0.149,-0.1507,-0.1559,-0.1586,-0.1616,-0.1653,-0.169,-0.1728,-0.1748,-0.1801,-0.1814,-0.1841,-0.1862,-0.1864,-0.1896,-0.1875,-0.1866,-0.183,-0.1871,-0.184,-0.1838,-0.1839,-0.1838,-0.1837,-0.1836,0,0,-0.1434,-0.1509,-0.152,-0.1555,-0.1616,-0.1638,-0.1697,-0.1744,-0.1782,-0.1823,-0.1862,-0.191,-0.1909,-0.192,-0.1924,-0.1926,-0.1936,-0.1912,-0.191,-0.1876,-0.1907,-0.1781,-0.1766,-0.1935,-0.1936,-0.1936,-0.1878,0,-0.1451,-0.1516,-0.1551,-0.1619,-0.1653,-0.1698,-0.175,-0.1797,-0.1837,-0.1878,-0.1895,-0.1934,-0.1934,-0.1952,-0.1955,-0.1943,-0.1935,-0.1951,-0.1879,-0.1877,-0.1752,-0.1761,-0.1936,-0.1877,-0.1876,-0.1876,-0.1876,0,-0.1454,-0.1504,-0.1571,-0.1655,-0.1675,-0.1722,-0.1798,-0.1845,-0.1899,-0.1928,-0.1956,-0.1966,-0.1985,-0.1977,-0.1959,-0.1971,-0.1945,-0.1928,-0.1925,-0.1781,-0.1747,-0.1828,-0.1872,-0.1873,-0.1873,-0.1873,-0.1873,0,-0.1421,-0.1514,-0.1572,-0.1602,-0.1697,-0.1742,-0.1795,-0.186,-0.1898,-0.1953,-0.1973,-0.1993,-0.1999,-0.1981,-0.1949,-0.1961,-0.1908,-0.1914,-0.1768,-0.1759,-0.1865,-0.1862,-0.1889,-0.1889,-0.1889,-0.1889,-0.189,0,-0.1409,-0.1459,-0.1567,-0.16,-0.167,-0.1739,-0.1805,-0.1859,-0.192,-0.1935,-0.1991,-0.1982,-0.2003,-0.1975,-0.1947,-0.1837,-0.19,-0.1761,-0.1732,-0.1892,-0.1893,-0.1863,-0.1861,-0.1887,-0.1888,-0.1888,-0.1888,0,-0.1352,-0.1427,-0.1497,-0.1615,-0.1655,-0.1703,-0.1808,-0.1839,-0.1912,-0.1928,-0.1944,-0.1977,-0.1923,-0.1915,-0.187,-0.181,-0.1738,-0.1684,-0.184,-0.1824,-0.1597,-0.1599,-0.1513,-0.1508,-0.1504,-0.15,-0.1497,0,-0.1321,-0.1355,-0.1493,-0.1531,-0.1588,-0.1671,-0.1715,-0.1819,-0.1835,-0.1889,-0.1871,-0.1864,-0.1856,-0.1682,-0.1702,-0.1619,-0.1602,-0.1568,-0.1596,-0.1575,-0.1557,-0.1566,-0.1573,-0.149,-0.1489,-0.1488,-0.1487,0,-0.1257,-0.132,-0.1381,-0.1461,-0.1524,-0.1578,-0.1645,-0.165,-0.1728,-0.1818,-0.1736,-0.169,-0.162,-0.157,-0.1514,-0.1463,-0.1596,-0.1523,-0.1533,-0.1559,-0.1547,-0.1535,-0.1547,-0.1472,-0.1474,-0.1476,-0.1477,0,-0.1202,-0.1228,-0.1309,-0.1362,-0.1436,-0.1441,-0.1502,-0.1503,-0.1535,-0.1601,-0.1561,-0.1547,-0.1583,-0.1485,-0.1433,-0.1371,-0.1355,-0.1328,-0.1348,-0.1364,-0.1343,-0.1308,-0.1121,0,0,0,0,0,-0.1134,-0.115,-0.1197,-0.1242,-0.1304,-0.1333,-0.1425,-0.1479,-0.1561,-0.1459,-0.1505,-0.1425,-0.1336,-0.1344,-0.1243,-0.1368,-0.1367,-0.1249,-0.135,-0.139,-0.1407,-0.1397,0,0,0,0,0,0,-0.1088,-0.1136,-0.1156,-0.1116,-0.1111,-0.1153,-0.12,-0.1262,-0.1218,-0.1306,-0.1261,-0.1333,-0.1266,-0.1343,-0.1202,-0.1205,-0.1241,-0.1261,-0.1258,-0.1381,-0.1396,-0.141,-0.1405,0,0,0,0,0]},{"header":{"parameterUnit":"m.s-1","parameterCategory":2,"la1":30.2991,"la2":30.254,"lo1":-89.0895,"lo2":-89.0444,"dy":0.0017,"dx":0.0017,"nx":28,"ny":28,"refTime":"2024-05-27T21:00:00:Z","depth":"4","parameterNumber":3,"parameterNumberName":"V-component_of_CURRENTS"},"data":[0,0,0,0,0,0,0,0,0,0,0,0,0,0,0,0,0,0,0,0,0,0,0,0,0,0,0,0,0,0,0,0,0,0,0,0,0,0,0,0,0,0,0,0,0,0,0,0,0,0,0,0,0,0,0,0,0,0,-0.034,-0.034,0,-0.0297,-0.0296,-0.0295,-0.0268,-0.0268,-0.0268,-0.0268,-0.021,-0.0208,-0.0207,0,0,0,0,0,0,0,0,0,0,0,0,0,-0.0315,-0.0316,-0.034,-0.034,-0.0339,-0.0297,-0.0296,-0.0295,-0.0268,-0.0268,-0.0268,-0.0268,-0.021,-0.0208,-0.0207,0,0,0,0,0,0,0,0,0,0,0,0,0,-0.0303,-0.0317,-0.034,-0.0322,-0.032,-0.0297,-0.0296,-0.0295,-0.0268,-0.0268,-0.0268,-0.0268,-0.0211,-0.0209,-0.0206,-0.019,0,0,-0.0199,-0.0198,0,0,0,0,0,0,0,0,-0.0304,-0.0303,-0.0325,-0.0323,-0.0321,-0.029,-0.0266,-0.026,-0.0268,-0.0286,-0.0268,-0.0268,-0.0236,-0.0232,-0.0221,-0.0188,-0.0185,-0.0199,-0.0197,-0.0196,-0.0196,0,0,0,0,0,0,0,-0.0305,-0.0305,-0.0321,-0.0325,-0.0322,-0.0288,-0.0286,-0.0264,-0.0259,-0.0284,-0.0282,-0.0281,-0.0235,-0.0223,-0.0219,-0.0184,-0.0199,-0.0197,-0.0195,-0.0194,-0.0104,-0.0103,0,0,0,0,0,0,-0.0319,-0.0306,-0.0322,-0.032,-0.0315,-0.0289,-0.0287,-0.0298,-0.026,-0.0255,-0.0281,-0.028,-0.0227,-0.0222,-0.0217,-0.0172,-0.0196,-0.0194,-0.0193,-0.0105,-0.0104,-0.0103,0,0,0,0,0,0,-0.0319,-0.0321,-0.0324,-0.0312,-0.0311,-0.029,-0.0302,-0.0297,-0.029,-0.0258,-0.0252,-0.0279,-0.0227,-0.022,-0.0193,-0.0171,-0.0193,-0.0191,-0.0106,-0.0105,-0.0103,-0.0097,0,0,0,0,0,0,-0.0318,-0.0322,-0.0332,-0.0314,-0.0312,-0.0314,-0.0302,-0.0296,-0.029,-0.0288,-0.0254,-0.0249,-0.0227,-0.0196,-0.019,-0.0168,-0.0189,-0.0107,-0.0106,-0.0104,-0.0099,-0.0096,-0.0093,0,0,0,0,0,-0.0318,-0.0335,-0.0333,-0.0335,-0.0329,-0.0314,-0.0309,-0.0292,-0.029,-0.0286,-0.0259,-0.025,-0.018,-0.0194,-0.0187,-0.0163,-0.0108,-0.0106,-0.0104,-0.01,-0.0096,-0.0093,0,0,0,0,0,0,-0.0329,-0.0333,-0.0331,-0.0349,-0.0334,-0.031,-0.0308,-0.0297,-0.0273,-0.0273,-0.0242,-0.0234,-0.0199,-0.0185,-0.0201,-0.0131,-0.0141,-0.0137,-0.014,-0.0137,-0.0134,-0.0137,-0.0187,0,0,0,0,0,-0.0338,-0.0354,-0.0343,-0.0356,-0.0352,-0.0332,-0.0324,-0.0313,-0.0291,-0.0281,-0.0255,-0.0223,-0.0183,-0.0166,-0.0136,-0.0104,-0.0084,-0.0081,-0.0079,-0.0077,-0.0073,-0.0013,-0.0005,-0.0096,-0.0096,-0.0096,0,0,-0.0347,-0.0351,-0.036,-0.0359,-0.0348,-0.0337,-0.0327,-0.032,-0.0302,-0.0278,-0.0248,-0.0217,-0.0174,-0.0131,-0.0114,-0.0117,-0.0044,-0.0074,-0.0072,-0.007,-0.001,-0.0001,0.0007,-0.0094,-0.0095,-0.0095,0,0,-0.0363,-0.0375,-0.0388,-0.0377,-0.0366,-0.0349,-0.035,-0.0327,-0.0309,-0.0281,-0.0247,-0.0202,-0.0162,-0.011,-0.0082,-0.0047,-0.0034,-0.0042,-0.0027,0.0031,0.0039,0.0046,0.0063,0.0072,-0.0038,-0.0038,-0.0038,0,-0.0372,-0.0388,-0.0386,-0.0384,-0.0375,-0.0356,-0.035,-0.0325,-0.0293,-0.0271,-0.0274,-0.0177,-0.0144,-0.0064,-0.0049,-0.0039,-0.0023,-0.0045,0.0035,0.0042,0.005,0.0066,0.0075,-0.0038,-0.0038,-0.0038,-0.0038,0,-0.0387,-0.0396,-0.0401,-0.0394,-0.038,-0.0377,-0.0344,-0.0324,-0.0305,-0.0272,-0.0207,-0.0152,-0.0094,-0.0068,-0.0049,0.0029,0.0016,0.0028,0.0024,0.0059,0.0074,0.0084,-0.0037,-0.0037,-0.0037,-0.0037,0,0,-0.0418,-0.0415,-0.0416,-0.0414,-0.0387,-0.038,-0.0345,-0.0305,-0.028,-0.0232,-0.0186,-0.0099,-0.0072,-0.0037,0.0005,0.0062,0.0124,0.0063,0.0066,0.0074,0.0223,0.0189,0.0196,0.0149,0.0151,0.0153,0.0204,0,-0.0429,-0.044,-0.0425,-0.0419,-0.0419,-0.0384,-0.0355,-0.0312,-0.027,-0.0222,-0.0142,-0.0089,-0.0058,-0.0032,0.0036,0.01,0.0154,0.0107,0.0192,0.0194,0.0156,0.0208,0.016,0.0212,0.0214,0.0216,0.0217,0,-0.0445,-0.0451,-0.0458,-0.0439,-0.0435,-0.0425,-0.0378,-0.0348,-0.0267,-0.0233,-0.0155,-0.0102,-0.0004,0.0009,0.0148,0.0112,0.0167,0.0217,0.0221,0.0196,0.018,0.0176,0.0235,0.0234,0.0232,0.0231,0.023,0,-0.0473,-0.0469,-0.048,-0.0474,-0.0449,-0.0442,-0.0425,-0.0358,-0.0331,-0.0244,-0.0215,-0.0093,-0.0046,0.006,0.0158,0.0154,0.0294,0.0302,0.0327,0.0323,0.0332,0.0324,0.0407,0.0407,0.0407,0.0407,0.0407,0,-0.0489,-0.0497,-0.0503,-0.0509,-0.052,-0.0484,-0.0475,-0.0434,-0.037,-0.0332,-0.0233,-0.0174,-0.003,0.0066,0.0159,0.0264,0.0296,0.0339,0.0348,0.033,0.0321,0.0338,0.0329,0.0409,0.0408,0.0408,0.0408,0,-0.0513,-0.0517,-0.0536,-0.0534,-0.0539,-0.055,-0.0533,-0.0516,-0.0454,-0.0399,-0.0375,-0.0236,-0.0109,0.0026,0.019,0.0248,0.0362,0.0391,0.0336,0.034,0.0347,0.0338,0.0427,0.0427,0.0426,0.0426,0.0426,0,-0.0524,-0.054,-0.0572,-0.0598,-0.0605,-0.0618,-0.0623,-0.0571,-0.0542,-0.0431,-0.0401,-0.0271,-0.017,0.0037,0.017,0.0337,0.0362,0.0398,0.0407,0.0356,0.0356,0.0348,0.034,0.0425,0.0425,0.0425,0.0425,0,-0.0545,-0.0567,-0.0589,-0.0647,-0.0675,-0.0691,-0.0688,-0.0671,-0.0592,-0.0541,-0.0402,-0.0272,-0.0132,0.0037,0.0158,0.0282,0.0366,0.0394,0.0396,0.0406,0.0354,0.0353,0.0346,0.0423,0.0424,0.0424,0.0424,0,-0.0565,-0.0599,-0.0642,-0.0685,-0.073,-0.0743,-0.0736,-0.0679,-0.0637,-0.0497,-0.0457,-0.0279,-0.0168,0.0008,0.0126,0.0237,0.0269,0.0294,0.0302,0.0305,0.0254,0.017,0.0204,0,0,0,0,0,-0.0578,-0.0621,-0.0671,-0.072,-0.0762,-0.0778,-0.0764,-0.0738,-0.0664,-0.0568,-0.0502,-0.0357,-0.0147,-0.0047,0.0061,0.0094,0.0259,0.0218,0.0284,0.0416,0.0418,0.0377,0,0,0,0,0,0,-0.059,-0.0648,-0.0675,-0.0734,-0.0769,-0.0801,-0.0793,-0.0742,-0.0668,-0.0576,-0.0454,-0.0359,-0.0153,-0.0209,0.0055,0.009,0.0139,0.0329,0.0331,0.0415,0.0417,0.0418,0.0377,0,0,0,0,0]}]]